H1 CPF 2 NER 2025 9 10 9 253 01 glonass134 H2 1407501 9134 40315 2025 9 10 0 0 0 2025 9 13 23 45 0 900 1 1 0 0 0 1 H9 10 0 60928 0.00000 0 4834555.882 14595181.257 -20303761.837 10 0 60928 900.00000 0 2583743.485 13315729.646 -21561443.360 10 0 60928 1800.00000 0 132399.736 12142604.441 -22398669.709 10 0 60928 2700.00000 0 -2465497.507 11116635.937 -22799408.617 10 0 60928 3600.00000 0 -5149087.418 10268851.448 -22756173.678 10 0 60928 4500.00000 0 -7852931.982 9619251.122 -22270146.104 10 0 60928 5400.00000 0 -10509513.950 9176070.426 -21351125.381 10 0 60928 6300.00000 0 -13051822.481 8935557.643 -20017311.781 10 0 60928 7200.00000 0 -15415919.023 8882272.825 -18294926.962 10 0 60928 8100.00000 0 -17543377.520 8989892.624 -16217681.797 10 0 60928 9000.00000 0 -19383498.989 9222484.420 -13826103.244 10 0 60928 9900.00000 0 -20895210.354 9536193.801 -11166734.505 10 0 60928 10800.00000 0 -22048571.043 9881272.689 -8291224.712 10 0 60928 11700.00000 0 -22825827.373 10204361.705 -5255326.163 10 0 60928 12600.00000 0 -23221973.533 10450930.359 -2117818.501 10 0 60928 13500.00000 0 -23244798.407 10567772.642 1060619.739 10 0 60928 14400.00000 0 -22914418.500 10505453.745 4218571.190 10 0 60928 15300.00000 0 -22262318.115 10220606.090 7295049.913 10 0 60928 16200.00000 0 -21329937.892 9677979.299 10230660.643 10 0 60928 17100.00000 0 -20166870.923 8852159.006 12968726.177 10 0 60928 18000.00000 0 -18828741.401 7728883.072 15456362.810 10 0 60928 18900.00000 0 -17374853.359 6305900.085 17645484.775 10 0 60928 19800.00000 0 -15865706.187 4593333.601 19493719.931 10 0 60928 20700.00000 0 -14360478.913 2613535.519 20965220.404 10 0 60928 21600.00000 0 -12914586.469 400432.505 22031353.592 10 0 60928 22500.00000 0 -11577408.338 -2001610.080 22671260.783 10 0 60928 23400.00000 0 -10390283.236 -4539362.765 22872272.592 10 0 60928 24300.00000 0 -9384852.949 -7152683.057 22630172.638 10 0 60928 25200.00000 0 -8581824.567 -9776765.408 21949303.134 10 0 60928 26100.00000 0 -7990203.614 -12344599.557 20842508.596 10 0 60928 27000.00000 0 -7607031.478 -14789537.539 19330916.570 10 0 60928 27900.00000 0 -7417639.848 -17047864.178 17443557.143 10 0 60928 28800.00000 0 -7396413.416 -19061264.685 15216826.098 10 0 60928 29700.00000 0 -7508030.526 -20779086.197 12693799.766 10 0 60928 30600.00000 0 -7709130.953 -22160297.701 9923412.896 10 0 60928 31500.00000 0 -7950341.245 -23175064.568 6959514.178 10 0 60928 32400.00000 0 -8178572.019 -23805869.609 3859817.151 10 0 60928 33300.00000 0 -8339489.144 -24048131.466 684767.059 10 0 60928 34200.00000 0 -8380052.406 -23910292.464 -2503653.216 10 0 60928 35100.00000 0 -8251011.607 -23413371.004 -5643153.244 10 0 60928 36000.00000 0 -7909251.347 -22589996.852 -8672374.940 10 0 60928 36900.00000 0 -7319881.971 -21482970.407 -11532115.505 10 0 60928 37800.00000 0 -6457985.050 -20143407.913 -14166507.012 10 0 60928 38700.00000 0 -5309936.892 -18628552.750 -16524127.208 10 0 60928 39600.00000 0 -3874252.080 -16999347.364 -18559017.911 10 0 60928 40500.00000 0 -2161910.146 -15317870.606 -20231589.716 10 0 60928 41400.00000 0 -196151.077 -13644750.525 -21509394.748 10 0 60928 42300.00000 0 1988251.566 -12036663.182 -22367752.348 10 0 60928 43200.00000 0 4346208.653 -10544023.521 -22790216.232 10 0 60928 44100.00000 0 6823972.536 -9208965.285 -22768875.275 10 0 60928 45000.00000 0 9361162.594 -8063693.860 -22304483.724 10 0 60928 45900.00000 0 11893073.638 -7129279.338 -21406420.262 10 0 60928 46800.00000 0 14353170.133 -6414937.862 -20092478.721 10 0 60928 47700.00000 0 16675662.042 -5917828.400 -18388496.515 10 0 60928 48600.00000 0 18798055.349 -5623370.168 -16327829.776 10 0 60928 49500.00000 0 20663572.066 -5506064.174 -13950686.895 10 0 60928 50400.00000 0 22223340.478 -5530781.438 -11303334.595 10 0 60928 51300.00000 0 23438266.487 -5654461.352 -8437192.701 10 0 60928 52200.00000 0 24280510.464 -5828147.022 -5407835.522 10 0 60928 53100.00000 0 24734510.549 -5999270.946 -2273919.217 10 0 60928 54000.00000 0 24797512.201 -6114094.554 903944.511 10 0 60928 54900.00000 0 24479584.070 -6120199.260 4064347.367 10 0 60928 55800.00000 0 23803121.244 -5968925.021 7146254.711 10 0 60928 56700.00000 0 22801857.734 -5617654.867 10090165.819 10 0 60928 57600.00000 0 21519429.844 -5031850.476 12839243.357 10 0 60928 58500.00000 0 20007550.119 -4186754.148 15340391.873 10 0 60928 59400.00000 0 18323867.119 -3068686.202 17545266.237 10 0 60928 60300.00000 0 16529598.838 -1675883.215 19411192.178 10 0 60928 61200.00000 0 14687036.573 -18841.049 20901982.540 10 0 60928 62100.00000 0 12857021.330 1879853.393 21988634.571 10 0 60928 63000.00000 0 11096495.972 3986197.185 22649895.387 10 0 60928 63900.00000 0 9456233.511 6255928.071 22872684.724 10 0 60928 64800.00000 0 7978835.103 8636118.121 22652366.265 10 0 60928 65700.00000 0 6697080.671 11067141.555 21992861.116 10 0 60928 66600.00000 0 5632701.168 13484938.160 20906599.513 10 0 60928 67500.00000 0 4795624.543 15823480.922 19414309.512 10 0 60928 68400.00000 0 4183728.206 18017347.198 17544644.300 10 0 60928 69300.00000 0 3783109.989 20004287.378 15333652.825 10 0 60928 70200.00000 0 3568867.845 21727684.009 12824101.641 10 0 60928 71100.00000 0 3506356.901 23138797.799 10064659.139 10 0 60928 72000.00000 0 3552871.856 24198704.889 7108956.629 10 0 60928 72900.00000 0 3659683.937 24879842.017 4014543.889 10 0 60928 73800.00000 0 3774345.719 25167092.316 841759.592 10 0 60928 74700.00000 0 3843164.847 25058363.840 -2347460.347 10 0 60928 75600.00000 0 3813739.666 24564634.591 -5490811.688 10 0 60928 76500.00000 0 3637446.509 23709461.026 -8526861.871 10 0 60928 77400.00000 0 3271770.120 22527970.417 -11396274.384 10 0 60928 78300.00000 0 2682375.335 21065380.114 -14042991.029 10 0 60928 79200.00000 0 1844829.390 19375107.408 -16415346.663 10 0 60928 80100.00000 0 745899.660 17516551.572 -18467092.596 10 0 60928 81000.00000 0 -615629.675 15552643.634 -20158307.344 10 0 60928 81900.00000 0 -2228657.429 13547269.109 -21456176.210 10 0 60928 82800.00000 0 -4069994.432 11562673.862 -22335624.487 10 0 60928 83700.00000 0 -6105111.693 9656963.184 -22779792.600 10 0 60928 84600.00000 0 -8289375.342 7881799.369 -22780345.170 10 0 60928 85500.00000 0 -10569715.402 6280393.759 -22337609.639 10 0 60929 0.00000 0 -12886657.140 4885875.991 -21460543.790 10 0 60929 900.00000 0 -15176630.373 3720105.705 -20166534.279 10 0 60929 1800.00000 0 -17374456.586 2792975.358 -18481033.349 10 0 60929 2700.00000 0 -19415914.115 2102227.471 -16437041.029 10 0 60929 3600.00000 0 -21240271.860 1633792.381 -14074445.447 10 0 60929 4500.00000 0 -22792688.147 1362628.201 -11439234.879 10 0 60929 5400.00000 0 -24026376.104 1254024.906 -8582597.659 10 0 60929 6300.00000 0 -24904447.223 1265315.392 -5559927.774 10 0 60929 7200.00000 0 -25401358.383 1347919.939 -2429755.445 10 0 60929 8100.00000 0 -25503904.195 1449637.189 747377.007 10 0 60929 9000.00000 0 -25211715.308 1517085.105 3910073.001 10 0 60929 9900.00000 0 -24537243.570 1498189.598 6997251.898 10 0 60929 10800.00000 0 -23505235.852 1344617.039 9949310.280 10 0 60929 11700.00000 0 -22151719.014 1014049.394 12709253.447 10 0 60929 12600.00000 0 -20522538.223 472207.419 15223776.922 10 0 60929 13500.00000 0 -18671508.728 -305462.290 17444278.805 10 0 60929 14400.00000 0 -16658256.672 -1332506.945 19327785.091 10 0 60929 15300.00000 0 -14545836.998 -2610647.992 20837771.457 10 0 60929 16200.00000 0 -12398225.445 -4129457.835 21944866.774 10 0 60929 17100.00000 0 -10277786.807 -5866548.395 22627425.376 10 0 60929 18000.00000 0 -8242822.790 -7788266.328 22871957.103 10 0 60929 18900.00000 0 -6345299.889 -9850869.111 22673406.273 10 0 60929 19800.00000 0 -4628850.801 -12002136.473 22035273.058 10 0 60929 20700.00000 0 -3127132.267 -14183353.429 20969573.196 10 0 60929 21600.00000 0 -1862608.062 -16331585.361 19496634.663 10 0 60929 22500.00000 0 -845808.827 -18382152.753 17644732.785 10 0 60929 23400.00000 0 -75100.978 -20271203.883 15449568.355 10 0 60929 24300.00000 0 463024.139 -21938278.592 12953596.491 10 0 60929 25200.00000 0 793151.595 -23328755.499 10205217.248 10 0 60929 26100.00000 0 949667.257 -24396078.772 7257842.307 10 0 60929 27000.00000 0 975058.474 -25103668.999 4168855.201 10 0 60929 27900.00000 0 917863.071 -25426435.396 998485.378 10 0 60929 28800.00000 0 830354.487 -25351823.141 -2191381.006 10 0 60929 29700.00000 0 766062.888 -24880349.409 -5338428.786 10 0 60929 30600.00000 0 777239.840 -24025603.727 -8381153.878 10 0 60929 31500.00000 0 912376.945 -22813711.585 -11260089.026 10 0 60929 32400.00000 0 1213886.734 -21282283.768 -13918988.730 10 0 60929 33300.00000 0 1716047.056 -19478896.333 -16305947.822 10 0 60929 34200.00000 0 2443298.557 -17459166.651 -18374429.835 10 0 60929 35100.00000 0 3408969.205 -15284508.325 -20084183.683 10 0 60929 36000.00000 0 4614480.961 -13019661.348 -21402030.015 10 0 60929 36900.00000 0 6049072.464 -10730103.118 -22302501.862 10 0 60929 37800.00000 0 7690049.161 -8479450.285 -22768327.729 10 0 60929 38700.00000 0 9503549.533 -6326960.992 -22790748.920 10 0 60929 39600.00000 0 11445794.022 -4325241.948 -22369666.593 10 0 60929 40500.00000 0 13464762.985 -2518255.159 -21513617.541 10 0 60929 41400.00000 0 15502232.154 -939705.703 -20239581.277 10 0 60929 42300.00000 0 17496079.469 388124.736 -18572624.077 10 0 60929 43200.00000 0 19382766.331 1455053.079 -16545388.780 10 0 60929 44100.00000 0 21099889.617 2263154.144 -14197441.736 10 0 60929 45000.00000 0 22588698.432 2826400.923 -11574490.813 10 0 60929 45900.00000 0 23796471.592 3169804.313 -8727490.449 10 0 60929 46800.00000 0 24678658.133 3328091.258 -5711651.490 10 0 60929 47700.00000 0 25200693.269 3343979.048 -2585375.043 10 0 60929 48600.00000 0 25339415.956 3266119.756 590869.372 10 0 60929 49500.00000 0 25084030.760 3146801.938 3755700.446 10 0 60929 50400.00000 0 24436575.482 3039506.245 6847995.113 10 0 60929 51300.00000 0 23411876.231 2996417.165 9808050.715 10 0 60929 52200.00000 0 22036992.403 3065994.548 12578718.438 10 0 60929 53100.00000 0 20350174.674 3290705.897 15106487.750 10 0 60929 54000.00000 0 18399378.681 3705013.654 17342502.630 10 0 60929 54900.00000 0 16240394.892 4333701.321 19243491.628 10 0 60929 55800.00000 0 13934670.605 5190608.522 20772595.177 10 0 60929 56700.00000 0 11546912.373 6277828.620 21900075.315 10 0 60929 57600.00000 0 9142566.070 7585403.887 22603894.743 10 0 60929 58500.00000 0 6785277.029 9091533.148 22870154.137 10 0 60929 59400.00000 0 4534433.722 10763286.024 22693378.748 10 0 60929 60300.00000 0 2442895.551 12557797.206 22076647.646 10 0 60929 61200.00000 0 554998.378 14423894.261 21031561.428 10 0 60929 62100.00000 0 -1095079.398 16304094.257 19578046.880 10 0 60929 63000.00000 0 -2484521.657 18136888.564 17743999.918 10 0 60929 63900.00000 0 -3602598.975 19859222.345 15564771.242 10 0 60929 64800.00000 0 -4450881.017 21409066.051 13082502.258 10 0 60929 65700.00000 0 -5042926.620 22727971.304 10345322.144 10 0 60929 66600.00000 0 -5403463.368 23763502.943 7406420.210 10 0 60929 67500.00000 0 -5567090.429 24471443.297 4323010.862 10 0 60929 68400.00000 0 -5576559.282 24817673.550 1155211.352 10 0 60929 69300.00000 0 -5480705.611 24779650.225 -2035144.911 10 0 60929 70200.00000 0 -5332121.356 24347411.903 -5185734.778 10 0 60929 71100.00000 0 -5184667.688 23524071.373 -8234985.468 10 0 60929 72000.00000 0 -5090937.009 22325770.788 -11123301.633 10 0 60929 72900.00000 0 -5099774.580 20781100.833 -13794252.882 10 0 60929 73800.00000 0 -5253967.758 18930008.345 -16195696.189 10 0 60929 74700.00000 0 -5588203.456 16822239.169 -18280809.207 10 0 60929 75600.00000 0 -6127382.396 14515383.157 -20009012.891 10 0 60929 76500.00000 0 -6885362.897 12072605.162 -21346764.647 10 0 60929 77400.00000 0 -7864187.907 9560159.069 -22268206.428 10 0 60929 78300.00000 0 -9053827.774 7044790.603 -22755655.768 10 0 60929 79200.00000 0 -10432448.848 4591138.580 -22799931.365 10 0 60929 80100.00000 0 -11967195.384 2259243.590 -22400508.494 10 0 60929 81000.00000 0 -13615450.417 102267.561 -21565503.143 10 0 60929 81900.00000 0 -15326521.192 -1835482.082 -20311487.216 10 0 60929 82800.00000 0 -17043677.158 -3520143.480 -18663140.396 10 0 60929 83700.00000 0 -18706454.202 -4929443.193 -16652747.257 10 0 60929 84600.00000 0 -20253128.183 -6053346.591 -14319550.933 10 0 60929 85500.00000 0 -21623254.325 -6894192.218 -11708977.139 10 0 60930 0.00000 0 -22760166.780 -7466308.067 -8871744.664 10 0 60930 900.00000 0 -23613335.478 -7795129.349 -5862878.463 10 0 60930 1800.00000 0 -24140481.712 -7915856.742 -2740648.356 10 0 60930 2700.00000 0 -24309367.718 -7871714.448 434551.540 10 0 60930 3600.00000 0 -24099185.568 -7711881.622 3601357.925 10 0 60930 4500.00000 0 -23501489.518 -7489184.884 6698608.173 10 0 60930 5400.00000 0 -22520633.948 -7257648.606 9666503.354 10 0 60930 6300.00000 0 -21173699.258 -7070005.167 12447743.546 10 0 60930 7200.00000 0 -19489908.851 -6975268.671 14988615.129 10 0 60930 8100.00000 0 -17509560.858 -7016472.896 17240010.808 10 0 60930 9000.00000 0 -15282517.741 -7228667.393 19158364.316 10 0 60930 9900.00000 0 -12866314.709 -7637255.203 20706483.172 10 0 60930 10800.00000 0 -10323963.224 -8256741.902 21854264.536 10 0 60930 11700.00000 0 -7721538.181 -9089949.077 22579281.020 10 0 60930 12600.00000 0 -5125646.364 -10127726.725 22867225.234 10 0 60930 13500.00000 0 -2600878.820 -11349178.795 22712204.023 10 0 60930 14400.00000 0 -207350.943 -12722395.307 22116875.600 10 0 60930 15300.00000 0 2001568.903 -14205663.530 21092425.276 10 0 60930 16200.00000 0 3981248.474 -15749110.771 19658378.115 10 0 60930 17100.00000 0 5697415.610 -17296712.964 17842249.739 10 0 60930 18000.00000 0 7127348.652 -18788587.249 15679039.506 10 0 60930 18900.00000 0 8260582.457 -20163473.994 13210573.515 10 0 60930 19800.00000 0 9099099.090 -21361304.657 10484708.128 10 0 60930 20700.00000 0 9656993.802 -22325747.067 7554408.023 10 0 60930 21600.00000 0 9959629.340 -23006619.652 4476715.945 10 0 60930 22500.00000 0 10042313.703 -23362070.694 1311634.202 10 0 60930 23400.00000 0 9948557.396 -23360428.033 -1879059.436 10 0 60930 24300.00000 0 9727984.831 -22981638.273 -5033036.810 10 0 60930 25200.00000 0 9433990.085 -22218232.053 -8088659.436 10 0 60930 26100.00000 0 9121238.675 -21075772.357 -10986206.834 10 0 60930 27000.00000 0 8843124.029 -19572765.404 -13669066.617 10 0 60930 27900.00000 0 8649289.347 -17740037.160 -16084860.660 10 0 60930 28800.00000 0 8583322.589 -15619601.824 -18186483.321 10 0 60930 29700.00000 0 8680724.476 -13263070.769 -19933029.946 10 0 60930 30600.00000 0 8967237.104 -10729670.109 -21290596.745 10 0 60930 31500.00000 0 9457604.689 -8083951.702 -22232936.297 10 0 60930 32400.00000 0 10154818.786 -5393295.028 -22741956.498 10 0 60930 33300.00000 0 11049879.152 -2725305.620 -22808054.370 10 0 60930 34200.00000 0 12122079.058 -145219.424 -22430279.856 10 0 60930 35100.00000 0 13339801.385 2286578.757 -21616328.313 10 0 60930 36000.00000 0 14661790.280 4516820.214 -20382363.861 10 0 60930 36900.00000 0 16038843.220 6501308.040 -18752679.059 10 0 60930 37800.00000 0 17415851.068 8206484.652 -16759199.323 10 0 60930 38700.00000 0 18734099.567 9610548.911 -14440843.312 10 0 60930 39600.00000 0 19933735.306 10704079.680 -11842752.926 10 0 60930 40500.00000 0 20956292.945 11490143.429 -9015408.731 10 0 60930 41400.00000 0 21747178.451 11983884.795 -6013648.373 10 0 60930 42300.00000 0 22258005.416 12211620.282 -2895607.116 10 0 60930 43200.00000 0 22448688.029 12209475.525 278399.360 10 0 60930 44100.00000 0 22289204.592 12021624.932 3447028.991 10 0 60930 45000.00000 0 21760959.240 11698208.535 6549082.881 10 0 60930 45900.00000 0 20857686.105 11293013.610 9524669.086 10 0 60930 46800.00000 0 19585858.838 10861017.965 12316339.718 10 0 60930 47700.00000 0 17964588.563 10455897.021 14870181.040 10 0 60930 48600.00000 0 16025013.934 10127598.103 17136837.217 10 0 60930 49500.00000 0 13809207.470 9920082.457 19072449.646 10 0 60930 50400.00000 0 11368641.813 9869328.680 20639495.113 10 0 60930 51300.00000 0 8762277.223 10001680.656 21807507.773 10 0 60930 52200.00000 0 6054347.003 10332609.305 22553671.657 10 0 60930 53100.00000 0 3311929.873 10865940.804 22863272.429 10 0 60930 54000.00000 0 602407.311 11593585.124 22729999.204 10 0 60930 54900.00000 0 -2009091.121 12495778.499 22156089.534 10 0 60930 55800.00000 0 -4462150.196 13541832.356 21152313.115 10 0 60930 56700.00000 0 -6703338.072 14691360.295 19737792.456 10 0 60930 57600.00000 0 -8688187.982 15895934.598 17939661.540 10 0 60930 58500.00000 0 -10382809.674 17101105.278 15792566.590 10 0 60930 59400.00000 0 -11765062.401 18248698.768 13338016.234 10 0 60930 60300.00000 0 -12825239.085 19279300.633 10623591.557 10 0 60930 61200.00000 0 -13566231.515 20134817.776 7702029.950 10 0 60930 62100.00000 0 -14003168.301 20761011.217 4630199.718 10 0 60930 63000.00000 0 -14162539.951 21109890.691 1467985.379 10 0 60930 63900.00000 0 -14080847.686 21141867.446 -1722893.791 10 0 60930 64800.00000 0 -13802833.552 20827571.336 -4880107.453 10 0 60930 65700.00000 0 -13379367.997 20149252.490 -7941954.172 10 0 60930 66600.00000 0 -12865086.304 19101705.627 -10848590.981 10 0 60930 67500.00000 0 -12315876.512 17692675.890 -13543225.963 10 0 60930 68400.00000 0 -11786327.990 15942727.650 -15973248.176 10 0 60930 69300.00000 0 -11327251.493 13884581.321 -18091270.718 10 0 60930 70200.00000 0 -10983378.035 11561946.300 -19856065.123 10 0 60930 71100.00000 0 -10791335.784 9027899.980 -21233367.954 10 0 60930 72000.00000 0 -10777991.530 6342882.174 -22196543.725 10 0 60930 72900.00000 0 -10959227.012 3572390.404 -22727091.745 10 0 60930 73800.00000 0 -11339201.125 784473.769 -22814988.158 10 0 60930 74700.00000 0 -11910127.835 -1952869.033 -22458858.089 10 0 60930 75600.00000 0 -12652577.363 -4574278.688 -21665976.456 10 0 60930 76500.00000 0 -13536285.879 -7019503.838 -20452099.452 10 0 60930 77400.00000 0 -14521437.560 -9235647.655 -18841132.002 10 0 60930 78300.00000 0 -15560363.218 -11179100.926 -16864639.509 10 0 60930 79200.00000 0 -16599582.599 -12817083.827 -14561214.961 10 0 60930 80100.00000 0 -17582103.570 -14128735.299 -11975714.953 10 0 60930 81000.00000 0 -18449881.252 -15105708.054 -9158380.330 10 0 60930 81900.00000 0 -19146334.042 -15752247.788 -6163858.945 10 0 60930 82800.00000 0 -19618811.616 -16084756.486 -3050149.570 10 0 60930 83700.00000 0 -19820912.479 -16130860.792 122512.919 10 0 60930 84600.00000 0 -19714555.193 -15928026.559 3292810.231 10 0 60930 85500.00000 0 -19271717.840 -15521778.908 6399509.907 10 0 60931 0.00000 0 -18475774.138 -14963603.069 9382629.576 10 0 60931 900.00000 0 -17322370.609 -14308613.497 12184576.872 10 0 60931 1800.00000 0 -15819809.590 -13613089.025 14751240.632 10 0 60931 2700.00000 0 -13988920.255 -12931975.205 17033019.398 10 0 60931 3600.00000 0 -11862422.938 -12316457.834 18985764.988 10 0 60931 4500.00000 0 -9483811.069 -11811707.759 20571625.984 10 0 60931 5400.00000 0 -6905794.884 -11454890.392 21759775.737 10 0 60931 6300.00000 0 -4188368.711 -11273522.729 22527011.531 10 0 60931 7200.00000 0 -1396579.015 -11284246.784 22858213.516 10 0 60931 8100.00000 0 1401917.254 -11492071.573 22746654.097 10 0 60931 9000.00000 0 4139405.536 -11890116.955 22194150.766 10 0 60931 9900.00000 0 6750674.077 -12459872.159 21211057.822 10 0 60931 10800.00000 0 9175477.203 -13171960.720 19816095.044 10 0 60931 11700.00000 0 11360799.883 -13987382.371 18036014.219 10 0 60931 12600.00000 0 13262829.306 -14859182.298 15905107.504 10 0 60931 13500.00000 0 14848550.566 -15734479.566 13464564.706 10 0 60931 14400.00000 0 16096898.539 -16556770.740 10761689.888 10 0 60931 15300.00000 0 16999416.143 -17268411.985 7848990.994 10 0 60931 16200.00000 0 17560389.797 -17813174.398 4783159.350 10 0 60931 17100.00000 0 17796455.119 -18138763.156 1623958.832 10 0 60931 18000.00000 0 17735688.676 -18199191.704 -1566952.878 10 0 60931 18900.00000 0 17416224.074 -17956907.732 -4727246.492 10 0 60931 19800.00000 0 16884451.618 -17384577.987 -7795160.902 10 0 60931 20700.00000 0 16192879.180 -16466453.396 -10710733.873 10 0 60931 21600.00000 0 15397746.958 -15199254.281 -13416997.065 10 0 60931 22500.00000 0 14556499.619 -13592536.273 -15861109.633 10 0 60931 23400.00000 0 13725225.472 -11668520.347 -17995406.120 10 0 60931 24300.00000 0 12956173.500 -9461393.779 -19778336.667 10 0 60931 25200.00000 0 12295455.177 -7016111.778 -21175280.307 10 0 60931 26100.00000 0 11781029.489 -4386751.056 -22159215.235 10 0 60931 27000.00000 0 11441056.655 -1634485.589 -22711233.546 10 0 60931 27900.00000 0 11292689.551 1174729.466 -22820891.471 10 0 60931 28800.00000 0 11341352.558 3972667.805 -22486389.882 10 0 60931 29700.00000 0 11580536.328 6691430.669 -21714583.431 10 0 60931 30600.00000 0 11992114.808 9266025.895 -20520820.177 10 0 60931 31500.00000 0 12547168.683 11636820.613 -18928616.842 10 0 60931 32400.00000 0 13207278.236 13751767.020 -16969177.888 10 0 60931 33300.00000 0 13926229.116 15568310.738 -14680769.336 10 0 60931 34200.00000 0 14652057.723 17054905.014 -12107960.817 10 0 60931 35100.00000 0 15329349.154 18192070.794 -9300751.433 10 0 60931 36000.00000 0 15901690.761 18972961.748 -6313596.864 10 0 60931 36900.00000 0 16314178.405 19403413.801 -3204356.703 10 0 60931 37800.00000 0 16515870.840 19501479.970 -33182.083 10 0 60931 38700.00000 0 16462090.213 19296472.274 3138635.582 10 0 60931 39600.00000 0 16116473.369 18827552.430 6249833.449 10 0 60931 40500.00000 0 15452689.104 18141931.249 9240342.403 10 0 60931 41400.00000 0 14455750.328 17292752.249 12052427.581 10 0 60931 42300.00000 0 13122866.658 16336747.559 14631783.851 10 0 60931 43200.00000 0 11463801.639 15331763.208 16928566.828 10 0 60931 44100.00000 0 9500718.801 14334255.918 18898341.219 10 0 60931 45000.00000 0 7267521.358 13396864.658 20502929.594 10 0 60931 45900.00000 0 4808710.763 12566157.100 21711146.396 10 0 60931 46800.00000 0 2177808.731 11880644.175 22499403.726 10 0 60931 47700.00000 0 -564594.865 11369145.245 22852177.395 10 0 60931 48600.00000 0 -3353090.484 11049572.370 22762323.838 10 0 60931 49500.00000 0 -6119903.620 10928185.369 22231240.761 10 0 60931 50400.00000 0 -8797456.513 10999350.360 21268866.820 10 0 60931 51300.00000 0 -11320932.578 11245813.842 19893518.282 10 0 60931 52200.00000 0 -13630738.258 11639483.165 18131563.455 10 0 60931 53100.00000 0 -15674760.241 12142682.893 16016938.653 10 0 60931 54000.00000 0 -17410323.547 12709836.304 13590512.699 10 0 60931 54900.00000 0 -18805767.632 13289502.757 10899310.153 10 0 60931 55800.00000 0 -19841572.943 13826685.720 7995606.829 10 0 60931 56700.00000 0 -20510988.930 14265313.901 4935914.268 10 0 60931 57600.00000 0 -20820135.465 14550789.466 1779872.860 10 0 60931 58500.00000 0 -20787572.120 14632493.604 -1410924.142 10 0 60931 59400.00000 0 -20443352.829 14466140.728 -4574151.292 10 0 60931 60300.00000 0 -19827605.987 14015878.599 -7647990.534 10 0 60931 61200.00000 0 -18988700.941 13256042.347 -10572362.992 10 0 60931 62100.00000 0 -17981080.060 12172485.255 -13290126.402 10 0 60931 63000.00000 0 -16862850.319 10763427.657 -15748212.331 10 0 60931 63900.00000 0 -15693238.708 9039786.371 -17898678.849 10 0 60931 64800.00000 0 -14530021.508 7024969.902 -19699656.519 10 0 60931 65700.00000 0 -13427038.132 4754147.816 -21116168.341 10 0 60931 66600.00000 0 -12431895.999 2273025.580 -22120807.382 10 0 60931 67500.00000 0 -11583963.942 -363822.814 -22694259.372 10 0 60931 68400.00000 0 -10912738.538 -3094993.409 -22825661.156 10 0 60931 69300.00000 0 -10436651.086 -5854575.624 -22512789.546 10 0 60931 70200.00000 0 -10162363.608 -8574662.519 -21762078.795 10 0 60931 71100.00000 0 -10084581.051 -11187942.942 -20588468.377 10 0 60931 72000.00000 0 -10186384.838 -13630267.778 -19015086.056 10 0 60931 72900.00000 0 -10440070.891 -15843084.400 -17072774.306 10 0 60931 73800.00000 0 -10808454.226 -17775639.628 -14799470.899 10 0 60931 74700.00000 0 -11246583.024 -19386861.661 -12239457.008 10 0 60931 75600.00000 0 -11703788.382 -20646845.332 -9442488.337 10 0 60931 76500.00000 0 -12125982.516 -21537881.741 -6462826.617 10 0 60931 77400.00000 0 -12458108.404 -22054992.298 -3358190.374 10 0 60931 78300.00000 0 -12646638.088 -22205947.744 -188645.010 10 0 60931 79200.00000 0 -12642015.356 -22010773.743 2984547.046 10 0 60931 80100.00000 0 -12400941.195 -21500765.559 6100094.790 10 0 60931 81000.00000 0 -11888407.180 -20717054.179 9097844.466 10 0 60931 81900.00000 0 -11079392.485 -19708784.235 11919921.730 10 0 60931 82800.00000 0 -9960154.048 -18530979.629 14511829.755 10 0 60931 83700.00000 0 -8529055.993 -17242185.159 16823483.806 10 0 60931 84600.00000 0 -6796903.050 -15901981.334 18810163.990 10 0 60931 85500.00000 0 -4786762.754 -14568474.574 20433369.249 99